User: anonymous   Login
Location: Unspecified
(0.0000°N, 0.0000°E)
Time: 13:53:50
(UTC+00:00)
Language:

Vela 1A - Orbit

View from above orbital plane
View from above orbital plane
View from above satellite
View from above satellite

Ground track
Ground track

The orbit data is extracted from the following two-line orbital elements,

1 00692U 63039C   15052.81716795 -.00001549  00000-0  00000+0 0  9994
2 00692 034.2110 005.4190 5656347 152.6934 355.1417 00.21933443 41443
Epoch (UTC): 21 February 2015 19:36:43
Eccentricity: 0.5656347
inclination: 34.2110°
perigee height: 44070 km
apogee height: 175459 km
right ascension of ascending node: 5.4190°
argument of perigee: 152.6934°
revolutions per day: 0.21933443
mean anomaly at epoch: 355.1417°
orbit number at epoch: 4144

The dashed part of the orbit path shows where the satellite is in the earth's shadow,  

DLR